Year,Month,Day,Hour,Minute,Value (Times are PST for temperature in C)
2010,06,24,00,00,18.60
2010,06,24,00,01,18.50
2010,06,24,00,02,18.50
2010,06,24,00,03,18.40
2010,06,24,00,04,18.40
2010,06,24,00,05,18.40
2010,06,24,00,06,18.40
2010,06,24,00,07,18.40
2010,06,24,00,08,18.30
2010,06,24,00,09,18.30
2010,06,24,00,10,18.30
2010,06,24,00,11,18.20
2010,06,24,00,12,18.20
2010,06,24,00,13,18.20
2010,06,24,00,14,18.10
2010,06,24,00,15,18.10
2010,06,24,00,16,18.10
2010,06,24,00,17,18.00
2010,06,24,00,18,18.00
2010,06,24,00,19,17.90
2010,06,24,00,20,17.90
2010,06,24,00,21,17.90
2010,06,24,00,22,17.90
2010,06,24,00,23,17.80
2010,06,24,00,24,17.80
2010,06,24,00,25,17.80
2010,06,24,00,26,17.80
2010,06,24,00,27,17.80
2010,06,24,00,28,17.80
2010,06,24,00,29,17.80
2010,06,24,00,30,17.80
2010,06,24,00,31,17.80
2010,06,24,00,32,17.80
2010,06,24,00,33,17.80
2010,06,24,00,34,17.80
2010,06,24,00,35,17.80
2010,06,24,00,36,17.80
2010,06,24,00,37,17.70
2010,06,24,00,38,17.70
2010,06,24,00,39,17.70
2010,06,24,00,40,17.70
2010,06,24,00,41,17.80
2010,06,24,00,42,17.80
2010,06,24,00,43,17.80
2010,06,24,00,44,17.90
2010,06,24,00,45,17.90
2010,06,24,00,46,18.00
2010,06,24,00,47,18.00
2010,06,24,00,48,18.10
2010,06,24,00,49,18.10
2010,06,24,00,50,18.10
2010,06,24,00,51,18.10
2010,06,24,00,52,18.10
2010,06,24,00,53,18.10
2010,06,24,00,54,18.20
2010,06,24,00,55,18.20
2010,06,24,00,56,18.20
2010,06,24,00,57,18.40
2010,06,24,00,58,18.40
2010,06,24,00,59,18.50
2010,06,24,01,00,18.50
2010,06,24,01,01,18.50
2010,06,24,01,02,18.50
2010,06,24,01,03,18.40
2010,06,24,01,04,18.40
2010,06,24,01,05,18.40
2010,06,24,01,06,18.30
2010,06,24,01,07,18.30
2010,06,24,01,08,18.30
2010,06,24,01,09,18.20
2010,06,24,01,10,18.20
2010,06,24,01,11,18.10
2010,06,24,01,12,18.00
2010,06,24,01,13,17.90
2010,06,24,01,14,17.90
2010,06,24,01,15,17.80
2010,06,24,01,16,17.80
2010,06,24,01,17,17.70
2010,06,24,01,18,17.70
2010,06,24,01,19,17.60
2010,06,24,01,20,17.50
2010,06,24,01,21,17.50
2010,06,24,01,22,17.40
2010,06,24,01,23,17.40
2010,06,24,01,24,17.30
2010,06,24,01,25,17.20
2010,06,24,01,26,17.20
2010,06,24,01,27,17.10
2010,06,24,01,28,17.10
2010,06,24,01,29,17.10
2010,06,24,01,30,17.00
2010,06,24,01,31,17.00
2010,06,24,01,32,17.00
2010,06,24,01,33,16.90
2010,06,24,01,34,16.90
2010,06,24,01,35,16.90
2010,06,24,01,36,16.90
2010,06,24,01,37,16.90
2010,06,24,01,38,16.90
2010,06,24,01,39,16.90
2010,06,24,01,40,16.80
2010,06,24,01,41,16.80
2010,06,24,01,42,16.80
2010,06,24,01,43,16.80
2010,06,24,01,44,16.80
2010,06,24,01,45,16.80
2010,06,24,01,46,16.80
2010,06,24,01,47,16.80
2010,06,24,01,48,16.80
2010,06,24,01,49,16.90
2010,06,24,01,50,17.00
2010,06,24,01,51,17.10
2010,06,24,01,52,17.30
2010,06,24,01,53,17.40
2010,06,24,01,54,17.40
2010,06,24,01,55,17.50
2010,06,24,01,56,17.60
2010,06,24,01,57,17.70
2010,06,24,01,58,17.70
2010,06,24,01,59,17.80
2010,06,24,02,00,17.90
2010,06,24,02,01,17.90
2010,06,24,02,02,18.00
2010,06,24,02,03,18.10
2010,06,24,02,04,18.30
2010,06,24,02,05,18.40
2010,06,24,02,06,18.50
2010,06,24,02,07,18.60
2010,06,24,02,08,18.70
2010,06,24,02,09,18.70
2010,06,24,02,10,18.70
2010,06,24,02,11,18.70
2010,06,24,02,12,18.70
2010,06,24,02,13,18.70
2010,06,24,02,14,18.70
2010,06,24,02,15,18.80
2010,06,24,02,16,18.80
2010,06,24,02,17,18.80
2010,06,24,02,18,18.80
2010,06,24,02,19,18.80
2010,06,24,02,20,18.90
2010,06,24,02,21,18.90
2010,06,24,02,22,18.90
2010,06,24,02,23,18.90
2010,06,24,02,24,18.90
2010,06,24,02,25,18.90
2010,06,24,02,26,18.90
2010,06,24,02,27,18.80
2010,06,24,02,28,18.80
2010,06,24,02,29,18.80
2010,06,24,02,30,18.80
2010,06,24,02,31,18.80
2010,06,24,02,32,18.80
2010,06,24,02,33,18.80
2010,06,24,02,34,18.80
2010,06,24,02,35,18.70
2010,06,24,02,36,18.70
2010,06,24,02,37,18.60
2010,06,24,02,38,18.50
2010,06,24,02,39,18.50
2010,06,24,02,40,18.40
2010,06,24,02,41,18.30
2010,06,24,02,42,18.20
2010,06,24,02,43,18.20
2010,06,24,02,44,18.20
2010,06,24,02,45,18.10
2010,06,24,02,46,18.10
2010,06,24,02,47,18.00
2010,06,24,02,48,18.00
2010,06,24,02,49,17.90
2010,06,24,02,50,17.90
2010,06,24,02,51,17.80
2010,06,24,02,52,17.90
2010,06,24,02,53,17.90
2010,06,24,02,54,18.00
2010,06,24,02,55,18.10
2010,06,24,02,56,18.10
2010,06,24,02,57,18.10
2010,06,24,02,58,18.20
2010,06,24,02,59,18.20
2010,06,24,03,00,18.20
2010,06,24,03,01,18.20
2010,06,24,03,02,18.20
2010,06,24,03,03,18.20
2010,06,24,03,04,18.10
2010,06,24,03,05,18.10
2010,06,24,03,06,18.00
2010,06,24,03,07,18.00
2010,06,24,03,08,17.90
2010,06,24,03,09,17.90
2010,06,24,03,10,17.90
2010,06,24,03,11,17.90
2010,06,24,03,12,17.90
2010,06,24,03,13,17.90
2010,06,24,03,14,17.90
2010,06,24,03,15,17.90
2010,06,24,03,16,17.90
2010,06,24,03,17,18.00
2010,06,24,03,18,18.00
2010,06,24,03,19,18.10
2010,06,24,03,20,18.10
2010,06,24,03,21,18.10
2010,06,24,03,22,18.10
2010,06,24,03,23,18.10
2010,06,24,03,24,18.10
2010,06,24,03,25,18.10
2010,06,24,03,26,18.10
2010,06,24,03,27,18.10
2010,06,24,03,28,18.00
2010,06,24,03,29,18.00
2010,06,24,03,30,17.90
2010,06,24,03,31,17.90
2010,06,24,03,32,17.90
2010,06,24,03,33,17.90
2010,06,24,03,34,17.90
2010,06,24,03,35,17.80
2010,06,24,03,36,17.80
2010,06,24,03,37,17.80
2010,06,24,03,38,17.80
2010,06,24,03,39,17.80
2010,06,24,03,40,17.80
2010,06,24,03,41,17.70
2010,06,24,03,42,17.70
2010,06,24,03,43,17.70
2010,06,24,03,44,17.70
2010,06,24,03,45,17.60
2010,06,24,03,46,17.60
2010,06,24,03,47,17.60
2010,06,24,03,48,17.60
2010,06,24,03,49,17.60
2010,06,24,03,50,17.50
2010,06,24,03,51,17.50
2010,06,24,03,52,17.50
2010,06,24,03,53,17.50
2010,06,24,03,54,17.40
2010,06,24,03,55,17.40
2010,06,24,03,56,17.30
2010,06,24,03,57,17.30
2010,06,24,03,58,17.20
2010,06,24,03,59,17.20
2010,06,24,04,00,17.10
2010,06,24,04,01,17.10
2010,06,24,04,02,17.00
2010,06,24,04,03,16.90
2010,06,24,04,04,16.90
2010,06,24,04,05,16.80
2010,06,24,04,06,16.80
2010,06,24,04,07,16.80
2010,06,24,04,08,16.80
2010,06,24,04,09,16.70
2010,06,24,04,10,16.70
2010,06,24,04,11,16.70
2010,06,24,04,12,16.70
2010,06,24,04,13,16.60
2010,06,24,04,14,16.60
2010,06,24,04,15,16.60
2010,06,24,04,16,16.50
2010,06,24,04,17,16.50
2010,06,24,04,18,16.40
2010,06,24,04,19,16.40
2010,06,24,04,20,16.40
2010,06,24,04,21,16.40
2010,06,24,04,22,16.30
2010,06,24,04,23,16.30
2010,06,24,04,24,16.30
2010,06,24,04,25,16.30
2010,06,24,04,26,16.30
2010,06,24,04,27,16.20
2010,06,24,04,28,16.20
2010,06,24,04,29,16.20
2010,06,24,04,30,16.20
2010,06,24,04,31,16.20
2010,06,24,04,32,16.20
2010,06,24,04,33,16.20
2010,06,24,04,34,16.20
2010,06,24,04,35,16.10
2010,06,24,04,36,16.10
2010,06,24,04,37,16.10
2010,06,24,04,38,16.10
2010,06,24,04,39,16.00
2010,06,24,04,40,16.00
2010,06,24,04,41,16.00
2010,06,24,04,42,16.00
2010,06,24,04,43,16.00
2010,06,24,04,44,16.00
2010,06,24,04,45,16.00
2010,06,24,04,46,15.90
2010,06,24,04,47,15.90
2010,06,24,04,48,15.90
2010,06,24,04,49,15.90
2010,06,24,04,50,15.90
2010,06,24,04,51,15.90
2010,06,24,04,52,15.90
2010,06,24,04,53,15.90
2010,06,24,04,54,15.90
2010,06,24,04,55,15.90
2010,06,24,04,56,15.90
2010,06,24,04,57,15.90
2010,06,24,04,58,15.90
2010,06,24,04,59,15.90
2010,06,24,05,00,15.90
2010,06,24,05,01,15.80
2010,06,24,05,02,15.80
2010,06,24,05,03,15.80
2010,06,24,05,04,15.80
2010,06,24,05,05,15.80
2010,06,24,05,06,15.90
2010,06,24,05,07,15.90
2010,06,24,05,08,15.90
2010,06,24,05,09,15.90
2010,06,24,05,10,15.90
2010,06,24,05,11,15.90
2010,06,24,05,12,15.90
2010,06,24,05,13,15.90
2010,06,24,05,14,15.90
2010,06,24,05,15,15.90
2010,06,24,05,16,16.00
2010,06,24,05,17,16.10
2010,06,24,05,18,16.10
2010,06,24,05,19,16.10
2010,06,24,05,20,16.20
2010,06,24,05,21,16.20
2010,06,24,05,22,16.20
2010,06,24,05,23,16.30
2010,06,24,05,24,16.30
2010,06,24,05,25,16.40
2010,06,24,05,26,16.40
2010,06,24,05,27,16.40
2010,06,24,05,28,16.40
2010,06,24,05,29,16.50
2010,06,24,05,30,16.50
2010,06,24,05,31,16.50
2010,06,24,05,32,16.50
2010,06,24,05,33,16.60
2010,06,24,05,34,16.60
2010,06,24,05,35,16.60
2010,06,24,05,36,16.60
2010,06,24,05,37,16.60
2010,06,24,05,38,16.60
2010,06,24,05,39,16.60
2010,06,24,05,40,16.50
2010,06,24,05,41,16.50
2010,06,24,05,42,16.50
2010,06,24,05,43,16.40
2010,06,24,05,44,16.40
2010,06,24,05,45,16.40
2010,06,24,05,46,16.40
2010,06,24,05,47,16.30
2010,06,24,05,48,16.30
2010,06,24,05,49,16.20
2010,06,24,05,50,16.20
2010,06,24,05,51,16.10
2010,06,24,05,52,16.00
2010,06,24,05,53,16.00
2010,06,24,05,54,15.90
2010,06,24,05,55,15.80
2010,06,24,05,56,15.80
2010,06,24,05,57,15.80
2010,06,24,05,58,15.70
2010,06,24,05,59,15.70
2010,06,24,06,00,15.70
2010,06,24,06,01,15.60
2010,06,24,06,02,15.60
2010,06,24,06,03,15.60
2010,06,24,06,04,15.60
2010,06,24,06,05,15.60
2010,06,24,06,06,15.60
2010,06,24,06,07,15.60
2010,06,24,06,08,15.60
2010,06,24,06,09,15.60
2010,06,24,06,10,15.60
2010,06,24,06,11,15.60
2010,06,24,06,12,15.60
2010,06,24,06,13,15.60
2010,06,24,06,14,15.60
2010,06,24,06,15,15.60
2010,06,24,06,16,15.60
2010,06,24,06,17,15.60
2010,06,24,06,18,15.60
2010,06,24,06,19,15.60
2010,06,24,06,20,15.60
2010,06,24,06,21,15.60
2010,06,24,06,22,15.50
2010,06,24,06,23,15.50
2010,06,24,06,24,15.40
2010,06,24,06,25,15.40
2010,06,24,06,26,15.30
2010,06,24,06,27,15.20
2010,06,24,06,28,15.10
2010,06,24,06,29,15.00
2010,06,24,06,30,14.90
2010,06,24,06,31,14.80
2010,06,24,06,32,14.70
2010,06,24,06,33,14.70
2010,06,24,06,34,14.60
2010,06,24,06,35,14.60
2010,06,24,06,36,14.50
2010,06,24,06,37,14.40
2010,06,24,06,38,14.40
2010,06,24,06,39,14.30
2010,06,24,06,40,14.30
2010,06,24,06,41,14.20
2010,06,24,06,42,14.20
2010,06,24,06,43,14.10
2010,06,24,06,44,14.10
2010,06,24,06,45,14.00
2010,06,24,06,46,14.00
2010,06,24,06,47,14.00
2010,06,24,06,48,14.00
2010,06,24,06,49,14.00
2010,06,24,06,50,14.00
2010,06,24,06,51,14.00
2010,06,24,06,52,14.10
2010,06,24,06,53,14.10
2010,06,24,06,54,14.10
2010,06,24,06,55,14.00
2010,06,24,06,56,14.00
2010,06,24,06,57,13.90
2010,06,24,06,58,13.90
2010,06,24,06,59,13.90
2010,06,24,07,00,13.90
2010,06,24,07,01,13.90
2010,06,24,07,02,14.00
2010,06,24,07,03,14.10
2010,06,24,07,04,14.10
2010,06,24,07,05,14.20
2010,06,24,07,06,14.30
2010,06,24,07,07,14.30
2010,06,24,07,08,14.40
2010,06,24,07,09,14.40
2010,06,24,07,10,14.50
2010,06,24,07,11,14.60
2010,06,24,07,12,14.60
2010,06,24,07,13,14.70
2010,06,24,07,14,14.70
2010,06,24,07,15,14.80
2010,06,24,07,16,14.90
2010,06,24,07,17,14.90
2010,06,24,07,18,15.00
2010,06,24,07,19,15.10
2010,06,24,07,20,15.10
2010,06,24,07,21,15.20
2010,06,24,07,22,15.30
2010,06,24,07,23,15.30
2010,06,24,07,24,15.40
2010,06,24,07,25,15.40
2010,06,24,07,26,15.50
2010,06,24,07,27,15.50
2010,06,24,07,28,15.60
2010,06,24,07,29,15.70
2010,06,24,07,30,15.70
2010,06,24,07,31,15.70
2010,06,24,07,32,15.70
2010,06,24,07,33,15.70
2010,06,24,07,34,15.70
2010,06,24,07,35,15.70
2010,06,24,07,36,15.70
2010,06,24,07,37,15.70
2010,06,24,07,38,15.70
2010,06,24,07,39,15.70
2010,06,24,07,40,15.70
2010,06,24,07,41,15.70
2010,06,24,07,42,15.70
2010,06,24,07,43,15.80
2010,06,24,07,44,15.80
2010,06,24,07,45,15.80
2010,06,24,07,46,15.80
2010,06,24,07,47,15.80
2010,06,24,07,48,15.70
2010,06,24,07,49,15.70
2010,06,24,07,50,15.70
2010,06,24,07,51,15.60
2010,06,24,07,52,15.60
2010,06,24,07,53,15.60
2010,06,24,07,54,15.60
2010,06,24,07,55,15.50
2010,06,24,07,56,15.50
2010,06,24,07,57,15.50
2010,06,24,07,58,15.40
2010,06,24,07,59,15.30
2010,06,24,08,00,15.30
2010,06,24,08,01,15.20
2010,06,24,08,02,15.20
2010,06,24,08,03,15.10
2010,06,24,08,04,15.00
2010,06,24,08,05,14.90
2010,06,24,08,06,14.90
2010,06,24,08,07,14.80
2010,06,24,08,08,14.70
2010,06,24,08,09,14.70
2010,06,24,08,10,14.70
2010,06,24,08,11,14.70
2010,06,24,08,12,14.60
2010,06,24,08,13,14.60
2010,06,24,08,14,14.70
2010,06,24,08,15,14.70
2010,06,24,08,16,14.70
2010,06,24,08,17,14.80
2010,06,24,08,18,14.90
2010,06,24,08,19,14.90
2010,06,24,08,20,15.00
2010,06,24,08,21,15.00
2010,06,24,08,22,15.00
2010,06,24,08,23,15.00
2010,06,24,08,24,15.10
2010,06,24,08,25,15.20
2010,06,24,08,26,15.30
2010,06,24,08,27,15.40
2010,06,24,08,28,15.40
2010,06,24,08,29,15.60
2010,06,24,08,30,15.60
2010,06,24,08,31,15.70
2010,06,24,08,32,15.80
2010,06,24,08,33,15.90
2010,06,24,08,34,15.90
2010,06,24,08,35,15.90
2010,06,24,08,36,16.00
2010,06,24,08,37,16.10
2010,06,24,08,38,16.10
2010,06,24,08,39,16.20
2010,06,24,08,40,16.20
2010,06,24,08,41,16.30
2010,06,24,08,42,16.30
2010,06,24,08,43,16.30
2010,06,24,08,44,16.30
2010,06,24,08,45,16.40
2010,06,24,08,46,16.40
2010,06,24,08,47,16.40
2010,06,24,08,48,16.50
2010,06,24,08,49,16.50
2010,06,24,08,50,16.60
2010,06,24,08,51,16.70
2010,06,24,08,52,16.70
2010,06,24,08,53,16.80
2010,06,24,08,54,16.80
2010,06,24,08,55,16.80
2010,06,24,08,56,16.80
2010,06,24,08,57,16.80
2010,06,24,08,58,16.70
2010,06,24,08,59,16.70
2010,06,24,09,00,16.70
2010,06,24,09,01,16.70
2010,06,24,09,02,16.70
2010,06,24,09,03,16.70
2010,06,24,09,04,16.80
2010,06,24,09,05,16.80
2010,06,24,09,06,16.80
2010,06,24,09,07,16.90
2010,06,24,09,08,16.90
2010,06,24,09,09,17.00
2010,06,24,09,10,17.00
2010,06,24,09,11,17.10
2010,06,24,09,12,17.10
2010,06,24,09,13,17.20
2010,06,24,09,14,17.20
2010,06,24,09,15,17.30
2010,06,24,09,16,17.40
2010,06,24,09,17,17.50
2010,06,24,09,18,17.50
2010,06,24,09,19,17.60
2010,06,24,09,20,17.70
2010,06,24,09,21,17.70
2010,06,24,09,22,17.70
2010,06,24,09,23,17.70
2010,06,24,09,24,17.60
2010,06,24,09,25,17.60
2010,06,24,09,26,17.60
2010,06,24,09,27,17.60
2010,06,24,09,28,17.60
2010,06,24,09,29,17.60
2010,06,24,09,30,17.50
2010,06,24,09,31,17.50
2010,06,24,09,32,17.50
2010,06,24,09,33,17.60
2010,06,24,09,34,17.60
2010,06,24,09,35,17.70
2010,06,24,09,36,17.70
2010,06,24,09,37,17.80
2010,06,24,09,39,17.70
2010,06,24,09,40,17.70
2010,06,24,09,41,17.70
2010,06,24,09,42,17.70
2010,06,24,09,43,17.60
2010,06,24,09,44,17.60
2010,06,24,09,45,17.60
2010,06,24,09,46,17.60
2010,06,24,09,47,17.50
2010,06,24,09,48,17.40
2010,06,24,09,49,17.40
2010,06,24,09,50,17.40
2010,06,24,09,51,17.30
2010,06,24,09,52,17.30
2010,06,24,09,53,17.20
2010,06,24,09,54,17.20
2010,06,24,09,55,17.20
2010,06,24,09,56,17.20
2010,06,24,09,57,17.20
2010,06,24,09,58,17.20
2010,06,24,09,59,17.20
2010,06,24,10,00,17.20
2010,06,24,10,01,17.20
2010,06,24,10,02,17.10
2010,06,24,10,03,17.10
2010,06,24,10,04,17.10
2010,06,24,10,05,17.20
2010,06,24,10,06,17.20
2010,06,24,10,07,17.30
2010,06,24,10,08,17.30
2010,06,24,10,09,17.40
2010,06,24,10,10,17.40
2010,06,24,10,11,17.40
2010,06,24,10,12,17.40
2010,06,24,10,13,17.50
2010,06,24,10,14,17.60
2010,06,24,10,15,17.70
2010,06,24,10,16,17.80
2010,06,24,10,17,17.90
2010,06,24,10,18,18.00
2010,06,24,10,19,18.10
2010,06,24,10,20,18.10
2010,06,24,10,21,18.20
2010,06,24,10,22,18.20
2010,06,24,10,23,18.20
2010,06,24,10,24,18.20
2010,06,24,10,25,18.30
2010,06,24,10,26,18.30
2010,06,24,10,27,18.20
2010,06,24,10,28,18.10
2010,06,24,10,29,17.90
2010,06,24,10,30,17.80
2010,06,24,10,31,17.70
2010,06,24,10,32,17.60
2010,06,24,10,33,17.50
2010,06,24,10,34,17.40
2010,06,24,10,35,17.40
2010,06,24,10,36,17.30
2010,06,24,10,37,17.30
2010,06,24,10,38,17.30
2010,06,24,10,39,17.30
2010,06,24,10,40,17.30
2010,06,24,10,41,17.30
2010,06,24,10,42,17.30
2010,06,24,10,43,17.40
2010,06,24,10,44,17.40
2010,06,24,10,45,17.40
2010,06,24,10,46,17.50
2010,06,24,10,47,17.60
2010,06,24,10,48,17.60
2010,06,24,10,49,17.70
2010,06,24,10,50,17.80
2010,06,24,10,51,17.80
2010,06,24,10,52,17.90
2010,06,24,10,53,17.90
2010,06,24,10,54,17.80
2010,06,24,10,55,17.70
2010,06,24,10,56,17.60
2010,06,24,10,57,17.50
2010,06,24,10,58,17.40
2010,06,24,10,59,17.30
2010,06,24,11,00,17.20
2010,06,24,11,01,17.20
2010,06,24,11,02,17.20
2010,06,24,11,03,17.30
2010,06,24,11,04,17.50
2010,06,24,11,05,17.60
2010,06,24,11,06,17.70
2010,06,24,11,07,17.80
2010,06,24,11,08,17.90
2010,06,24,11,09,17.90
2010,06,24,11,10,17.90
2010,06,24,11,11,18.00
2010,06,24,11,12,18.00
2010,06,24,11,13,18.00
2010,06,24,11,14,17.90
2010,06,24,11,15,17.80
2010,06,24,11,16,17.80
2010,06,24,11,17,17.90
2010,06,24,11,18,18.10
2010,06,24,11,19,18.20
2010,06,24,11,20,18.30
2010,06,24,11,21,18.50
2010,06,24,11,22,18.60
2010,06,24,11,23,18.70
2010,06,24,11,24,18.80
2010,06,24,11,25,18.90
2010,06,24,11,26,19.00
2010,06,24,11,27,19.10
2010,06,24,11,28,19.20
2010,06,24,11,29,19.30
2010,06,24,11,30,19.40
2010,06,24,11,31,19.50
2010,06,24,11,32,19.70
2010,06,24,11,33,19.70
2010,06,24,11,34,19.80
2010,06,24,11,35,19.80
2010,06,24,11,36,19.80
2010,06,24,11,37,19.70
2010,06,24,11,38,19.70
2010,06,24,11,39,19.70
2010,06,24,11,40,19.60
2010,06,24,11,41,19.50
2010,06,24,11,42,19.40
2010,06,24,11,43,19.40
2010,06,24,11,44,19.40
2010,06,24,11,45,19.40
2010,06,24,11,46,19.50
2010,06,24,11,47,19.50
2010,06,24,11,48,19.70
2010,06,24,11,49,19.80
2010,06,24,11,50,19.80
2010,06,24,11,51,19.80
2010,06,24,11,52,19.80
2010,06,24,11,53,19.80
2010,06,24,11,54,19.80
2010,06,24,11,55,19.80
2010,06,24,11,56,19.80
2010,06,24,11,57,19.80
2010,06,24,11,58,19.90
2010,06,24,11,59,19.90
2010,06,24,12,00,19.90
2010,06,24,12,01,19.90
2010,06,24,12,02,19.90
2010,06,24,12,03,19.90
2010,06,24,12,04,19.90
2010,06,24,12,05,19.80
2010,06,24,12,06,19.90
2010,06,24,12,07,19.90
2010,06,24,12,08,19.90
2010,06,24,12,09,19.90
2010,06,24,12,10,19.90
2010,06,24,12,11,19.90
2010,06,24,12,12,20.00
2010,06,24,12,13,20.10
2010,06,24,12,14,20.20
2010,06,24,12,15,20.30
2010,06,24,12,16,20.30
2010,06,24,12,17,20.30
2010,06,24,12,18,20.20
2010,06,24,12,19,20.10
2010,06,24,12,20,20.10
2010,06,24,12,21,20.00
2010,06,24,12,22,20.00
2010,06,24,12,23,20.00
2010,06,24,12,24,20.00
2010,06,24,12,25,19.90
2010,06,24,12,26,19.90
2010,06,24,12,27,19.80
2010,06,24,12,28,19.80
2010,06,24,12,29,19.80
2010,06,24,12,30,19.80
2010,06,24,12,31,19.70
2010,06,24,12,32,19.80
2010,06,24,12,33,19.80
2010,06,24,12,34,19.90
2010,06,24,12,35,19.90
2010,06,24,12,36,19.90
2010,06,24,12,37,19.90
2010,06,24,12,38,19.80
2010,06,24,12,39,19.70
2010,06,24,12,40,19.70
2010,06,24,12,41,19.60
2010,06,24,12,42,19.50
2010,06,24,12,43,19.50
2010,06,24,12,44,19.50
2010,06,24,12,45,19.50
2010,06,24,12,46,19.50
2010,06,24,12,47,19.40
2010,06,24,12,48,19.50
2010,06,24,12,49,19.50
2010,06,24,12,50,19.50
2010,06,24,12,51,19.60
2010,06,24,12,52,19.60
2010,06,24,12,53,19.70
2010,06,24,12,54,19.70
2010,06,24,12,55,19.80
2010,06,24,12,56,19.90
2010,06,24,12,57,20.00
2010,06,24,12,58,20.10
2010,06,24,12,59,20.20
2010,06,24,13,00,20.30
2010,06,24,13,01,20.30
2010,06,24,13,02,20.30
2010,06,24,13,03,20.30
2010,06,24,13,04,20.30
2010,06,24,13,05,20.40
2010,06,24,13,06,20.40
2010,06,24,13,07,20.40
2010,06,24,13,08,20.40
2010,06,24,13,09,20.40
2010,06,24,13,10,20.30
2010,06,24,13,11,20.40
2010,06,24,13,12,20.40
2010,06,24,13,13,20.40
2010,06,24,13,14,20.40
2010,06,24,13,15,20.40
2010,06,24,13,16,20.40
2010,06,24,13,17,20.40
2010,06,24,13,18,20.40
2010,06,24,13,19,20.30
2010,06,24,13,20,20.30
2010,06,24,13,21,20.30
2010,06,24,13,22,20.30
2010,06,24,13,23,20.40
2010,06,24,13,24,20.40
2010,06,24,13,25,20.50
2010,06,24,13,26,20.60
2010,06,24,13,27,20.60
2010,06,24,13,28,20.60
2010,06,24,13,29,20.60
2010,06,24,13,30,20.70
2010,06,24,13,31,20.70
2010,06,24,13,32,20.70
2010,06,24,13,33,20.80
2010,06,24,13,34,20.80
2010,06,24,13,35,20.60
2010,06,24,13,36,20.50
2010,06,24,13,37,20.50
2010,06,24,13,38,20.40
2010,06,24,13,39,20.40
2010,06,24,13,40,20.30
2010,06,24,13,41,20.30
2010,06,24,13,42,20.30
2010,06,24,13,43,20.20
2010,06,24,13,44,20.20
2010,06,24,13,45,20.20
2010,06,24,13,46,20.10
2010,06,24,13,47,20.10
2010,06,24,13,48,20.10
2010,06,24,13,49,20.00
2010,06,24,13,50,20.00
2010,06,24,13,51,20.00
2010,06,24,13,52,20.00
2010,06,24,13,53,20.00
2010,06,24,13,54,20.10
2010,06,24,13,55,20.00
2010,06,24,13,56,20.00
2010,06,24,13,57,20.00
2010,06,24,13,58,20.10
2010,06,24,13,59,20.20
2010,06,24,14,00,20.30
2010,06,24,14,01,20.40
2010,06,24,14,02,20.40
2010,06,24,14,03,20.50
2010,06,24,14,04,20.50
2010,06,24,14,05,20.60
2010,06,24,14,06,20.70
2010,06,24,14,07,20.80
2010,06,24,14,08,20.80
2010,06,24,14,09,20.80
2010,06,24,14,10,20.70
2010,06,24,14,11,20.60
2010,06,24,14,12,20.60
2010,06,24,14,13,20.60
2010,06,24,14,14,20.60
2010,06,24,14,15,20.60
2010,06,24,14,16,20.60
2010,06,24,14,17,20.60
2010,06,24,14,18,20.50
2010,06,24,14,19,20.50
2010,06,24,14,20,20.40
2010,06,24,14,21,20.30
2010,06,24,14,22,20.30
2010,06,24,14,23,20.40
2010,06,24,14,24,20.40
2010,06,24,14,25,20.50
2010,06,24,14,26,20.60
2010,06,24,14,27,20.50
2010,06,24,14,28,20.50
2010,06,24,14,29,20.30
2010,06,24,14,30,20.20
2010,06,24,14,31,20.10
2010,06,24,14,32,20.00
2010,06,24,14,33,19.90
2010,06,24,14,34,19.80
2010,06,24,14,35,19.80
2010,06,24,14,36,19.80
2010,06,24,14,37,19.80
2010,06,24,14,38,19.80
2010,06,24,14,39,19.80
2010,06,24,14,40,19.80
2010,06,24,14,41,19.80
2010,06,24,14,42,19.80
2010,06,24,14,43,19.60
2010,06,24,14,44,19.60
2010,06,24,14,45,19.50
2010,06,24,14,46,19.40
2010,06,24,14,47,19.30
2010,06,24,14,48,19.20
2010,06,24,14,49,19.10
2010,06,24,14,50,19.00
2010,06,24,14,51,19.00
2010,06,24,14,52,19.10
2010,06,24,14,53,19.00
2010,06,24,14,54,18.90
2010,06,24,14,55,18.80
2010,06,24,14,56,18.60
2010,06,24,14,57,18.50
2010,06,24,14,58,18.30
2010,06,24,14,59,18.20
2010,06,24,15,00,18.10
2010,06,24,15,01,18.00
2010,06,24,15,02,18.00
2010,06,24,15,03,18.10
2010,06,24,15,04,18.30
2010,06,24,15,05,18.40
2010,06,24,15,06,18.50
2010,06,24,15,07,18.60
2010,06,24,15,08,18.70
2010,06,24,15,09,18.70
2010,06,24,15,10,18.70
2010,06,24,15,11,18.70
2010,06,24,15,12,18.70
2010,06,24,15,13,18.70
2010,06,24,15,14,18.70
2010,06,24,15,15,18.60
2010,06,24,15,16,18.60
2010,06,24,15,17,18.60
2010,06,24,15,18,18.60
2010,06,24,15,19,18.70
2010,06,24,15,20,18.80
2010,06,24,15,21,18.90
2010,06,24,15,22,18.90
2010,06,24,15,23,18.90
2010,06,24,15,24,19.00
2010,06,24,15,25,19.00
2010,06,24,15,26,19.10
2010,06,24,15,27,19.10
2010,06,24,15,28,19.20
2010,06,24,15,29,19.20
2010,06,24,15,30,19.10
2010,06,24,15,31,19.10
2010,06,24,15,32,19.20
2010,06,24,15,33,19.20
2010,06,24,15,34,19.20
2010,06,24,15,35,19.20
2010,06,24,15,36,19.20
2010,06,24,15,37,19.30
2010,06,24,15,38,19.50
2010,06,24,15,39,19.60
2010,06,24,15,40,19.70
2010,06,24,15,41,19.80
2010,06,24,15,42,19.90
2010,06,24,15,43,20.00
2010,06,24,15,44,20.20
2010,06,24,15,45,20.20
2010,06,24,15,46,20.30
2010,06,24,15,47,20.30
2010,06,24,15,48,20.30
2010,06,24,15,49,20.30
2010,06,24,15,50,20.50
2010,06,24,15,51,20.60
2010,06,24,15,52,20.70
2010,06,24,15,53,20.70
2010,06,24,15,54,20.80
2010,06,24,15,55,20.90
2010,06,24,15,56,21.00
2010,06,24,15,57,21.10
2010,06,24,15,58,21.20
2010,06,24,15,59,21.30
2010,06,24,16,00,21.40
2010,06,24,16,01,21.40
2010,06,24,16,02,21.40
2010,06,24,16,03,21.40
2010,06,24,16,04,21.40
2010,06,24,16,05,21.30
2010,06,24,16,06,20.90
2010,06,24,16,07,20.00
2010,06,24,16,08,19.30
2010,06,24,16,09,18.70
2010,06,24,16,10,18.20
2010,06,24,16,11,17.90
2010,06,24,16,12,17.60
2010,06,24,16,13,17.40
2010,06,24,16,14,17.20
2010,06,24,16,15,17.10
2010,06,24,16,16,17.00
2010,06,24,16,17,16.90
2010,06,24,16,18,16.80
2010,06,24,16,19,16.70
2010,06,24,16,20,16.60
2010,06,24,16,21,16.40
2010,06,24,16,22,16.20
2010,06,24,16,23,16.10
2010,06,24,16,24,16.00
2010,06,24,16,25,15.90
2010,06,24,16,26,15.90
2010,06,24,16,27,15.80
2010,06,24,16,28,15.80
2010,06,24,16,29,15.80
2010,06,24,16,30,15.80
2010,06,24,16,31,15.80
2010,06,24,16,32,15.80
2010,06,24,16,33,15.80
2010,06,24,16,34,15.90
2010,06,24,16,35,15.90
2010,06,24,16,36,16.00
2010,06,24,16,37,16.00
2010,06,24,16,38,16.00
2010,06,24,16,39,16.10
2010,06,24,16,40,16.10
2010,06,24,16,41,16.20
2010,06,24,16,42,16.20
2010,06,24,16,43,16.20
2010,06,24,16,44,16.20
2010,06,24,16,45,16.20
2010,06,24,16,46,16.20
2010,06,24,16,47,16.30
2010,06,24,16,48,16.30
2010,06,24,16,49,16.40
2010,06,24,16,50,16.70
2010,06,24,16,51,17.20
2010,06,24,16,52,17.80
2010,06,24,16,53,18.40
2010,06,24,16,54,19.10
2010,06,24,16,55,19.70
2010,06,24,16,56,20.10
2010,06,24,16,57,20.50
2010,06,24,16,58,20.80
2010,06,24,16,59,21.00
2010,06,24,17,00,21.20
2010,06,24,17,01,21.40
2010,06,24,17,02,21.40
2010,06,24,17,03,21.40
2010,06,24,17,04,21.30
2010,06,24,17,05,21.30
2010,06,24,17,06,21.30
2010,06,24,17,07,21.40
2010,06,24,17,08,21.40
2010,06,24,17,09,21.40
2010,06,24,17,10,21.50
2010,06,24,17,11,21.50
2010,06,24,17,12,21.50
2010,06,24,17,13,21.50
2010,06,24,17,14,21.50
2010,06,24,17,15,21.50
2010,06,24,17,16,21.60
2010,06,24,17,17,21.60
2010,06,24,17,18,21.60
2010,06,24,17,19,21.60
2010,06,24,17,20,21.60